Wisconsin Rapids, WI

4:03 AM CST on January 24, 2018 (GMT -0600)
Alexander Field South Wood County

Weather History for KISW - July, 2013

Change the Weather History Date:

Tuesday, July 23, 2013

  Actual Average Record
Temperature  
Mean Temperature 66 °F -  
Max Temperature 73 °F 81 °F 98 °F (2012)
Min Temperature 57 °F 58 °F 46 °F (1949)
Cooling Degree Days 1    
Growing Degree Days 16 (Base 50)    
Moisture  
Dew Point 51 °F    
Average Humidity 59    
Maximum Humidity 81    
Minimum Humidity 41    
Precipitation  
Precipitation 0.00 in - - ()
Sea Level Pressure  
Sea Level Pressure 29.91 in    
Wind  
Wind Speed 10 mph (North)    
Max Wind Speed 17 mph    
Max Gust Speed 24 mph    
Visibility 10 miles    
Events      
Averages and records for this station are not official NWS values.
T = Trace of Precipitation, MM = Missing Value Source: NWS Daily Summary

Daily Weather History Graph

Daily Weather History Graph

Search for Another Location

Airport or City:

Trip Planner

Search our weather history database for the weather conditions in past years. The results will help you decide how hot, cold, wet, or windy it might be!

Date:

Astronomy

Jul. 23, 2013 Rise Set
Actual Time 5:37 AM CDT 8:33 PM CDT
Civil Twilight 5:02 AM CDT 9:08 PM CDT
Nautical Twilight 4:19 AM CDT 9:51 PM CDT
Astronomical Twilight 3:27 AM CDT 10:43 PM CDT
Moon 8:55 PM CDT (7/23) 6:50 AM CDT (7/23)
Length of Visible Light 16h 05m
Length of Day
14h 56m
Full, 99% of the Moon is Illuminated
Jul 23
Full
Jul 29
Last Quarter
Aug 6
New
Aug 14
First Quarter
Aug 20
Full

Hourly Weather History & Observations

Time (CDT) Temp. Dew Point Humidity Pressure Visibility Wind Dir Wind Speed Gust Speed Precip Events Conditions
12:46 AM 71.6 °F 60.8 °F 69% 29.77 in 10.0 mi North 10.4 mph 20.7 mph N/A   Overcast
12:54 AM 71.1 °F 60.1 °F 68% 29.76 in 10.0 mi North 12.7 mph - N/A   Overcast
1:54 AM 68.0 °F 55.9 °F 65% 29.78 in 10.0 mi NNW 6.9 mph - N/A   Mostly Cloudy
2:54 AM 66.0 °F 55.9 °F 70% 29.78 in 10.0 mi NNW 6.9 mph - N/A   Partly Cloudy
3:54 AM 63.0 °F 54.0 °F 72% 29.79 in 10.0 mi NNW 8.1 mph - N/A   Clear
4:54 AM 61.0 °F 53.1 °F 75% 29.82 in 10.0 mi NW 5.8 mph - N/A   Clear
5:54 AM 59.0 °F 53.1 °F 81% 29.83 in 10.0 mi NW 5.8 mph - N/A   Clear
6:54 AM 61.0 °F 53.1 °F 75% 29.85 in 10.0 mi NNW 6.9 mph - N/A   Clear
7:54 AM 64.0 °F 52.0 °F 65% 29.87 in 10.0 mi North 12.7 mph - N/A   Clear
8:54 AM 64.9 °F 52.0 °F 63% 29.90 in 10.0 mi North 10.4 mph - N/A   Partly Cloudy
9:24 AM 66.2 °F 51.8 °F 60% 29.91 in 10.0 mi North 13.8 mph - N/A   Mostly Cloudy
9:43 AM 64.4 °F 51.8 °F 64% 29.91 in 10.0 mi North 10.4 mph - N/A   Scattered Clouds
9:54 AM 66.9 °F 51.1 °F 57% 29.91 in 10.0 mi North 17.3 mph 24.2 mph N/A   Scattered Clouds
10:54 AM 66.0 °F 50.0 °F 56% 29.93 in 10.0 mi North 12.7 mph 24.2 mph N/A   Mostly Cloudy
11:54 AM 68.0 °F 48.9 °F 50% 29.95 in 10.0 mi NNW 17.3 mph 23.0 mph N/A   Mostly Cloudy
12:54 PM 66.9 °F 48.9 °F 52% 29.96 in 10.0 mi North 12.7 mph 19.6 mph N/A   Overcast
1:54 PM 70.0 °F 48.9 °F 47% 29.97 in 10.0 mi NNE 12.7 mph - N/A   Mostly Cloudy
2:54 PM 73.0 °F 48.9 °F 42% 29.96 in 10.0 mi NNW 10.4 mph 19.6 mph N/A   Scattered Clouds
3:54 PM 71.1 °F 48.0 °F 44% 29.97 in 10.0 mi North 8.1 mph - N/A   Scattered Clouds
4:54 PM 73.0 °F 48.0 °F 41% 29.97 in 10.0 mi North 10.4 mph 17.3 mph N/A   Scattered Clouds
5:54 PM 73.0 °F 48.0 °F 41% 29.96 in 10.0 mi North 10.4 mph - N/A   Mostly Cloudy
6:54 PM 72.0 °F 48.0 °F 43% 29.96 in 10.0 mi North 10.4 mph - N/A   Clear
7:54 PM 69.1 °F 46.9 °F 45% 29.98 in 10.0 mi North 6.9 mph - N/A   Clear
8:54 PM 64.0 °F 48.9 °F 58% 29.99 in 10.0 mi North 5.8 mph - N/A   Clear
9:54 PM 63.0 °F 46.9 °F 56% 30.02 in 10.0 mi NNE 8.1 mph - N/A   Clear
10:54 PM 61.0 °F 46.0 °F 58% 30.02 in 10.0 mi NE 6.9 mph - N/A   Clear
11:54 PM 57.9 °F 46.9 °F 67% 30.03 in 10.0 mi NE 3.5 mph - N/A   Clear